AL7BX-WX Weather Reports


Display with metric or nautical units.
time (UTC)temp
F
wind
direction
speed
MPH
gust
MPH
rain 1hr
in
rain 24hr
in
rain mn
in
humidity
%
barometer
mb
20260902112703 64 184 7.0 14.0 0.00 0.00 0.00 64
20260902111803 63 182 6.0 13.0 0.00 0.00 0.00 65
20260902110903 63 189 6.0 11.0 0.00 0.00 0.00 64
20260902110005 63 185 5.0 11.0 0.00 0.00 0.00 64
20260902105403 63 184 6.0 12.0 0.00 0.00 0.00 64
20260902104503 63 189 6.0 13.0 0.00 0.00 0.00 63
20260902103603 64 174 4.0 13.0 0.00 0.00 0.00 62
20260902102913 64 173 5.0 12.0 0.00 0.00 0.00 62
20260902101803 64 179 7.0 14.0 0.00 0.00 0.00 61
20260902100903 65 183 7.0 14.0 0.00 0.00 0.00 60
20260902100003 65 181 7.0 15.0 0.00 0.00 0.00 59
20260902095613 65 180 8.0 16.0 0.00 0.00 0.00 58
20260902094503 65 181 7.0 16.0 0.00 0.00 0.00 58
20260902093603 65 183 6.0 12.0 0.00 0.00 0.00 58
20260902092703 65 185 6.0 14.0 0.00 0.00 0.00 57
20260902091803 65 179 5.0 11.0 0.00 0.00 0.00 57
20260902090903 66 181 6.0 16.0 0.00 0.00 0.00 56
20260902090213 65 177 6.0 16.0 0.00 0.00 0.00 56
20260902085403 65 184 7.0 14.0 0.00 0.00 0.00 57
20260902084503 65 187 7.0 15.0 0.00 0.00 0.00 57
20260902083603 65 186 7.0 15.0 0.00 0.00 0.00 56
20260902082703 65 185 8.0 15.0 0.00 0.00 0.00 55
20260902082014 65 181 7.0 13.0 0.00 0.00 0.00 56
20260902080903 65 186 6.0 14.0 0.00 0.00 0.00 55
20260902080003 65 180 6.0 13.0 0.00 0.00 0.00 55
20260902075403 65 174 5.0 12.0 0.00 0.00 0.00 55
20260902074503 66 182 6.0 14.0 0.00 0.00 0.00 53
20260902073813 66 182 7.0 14.0 0.00 0.00 0.00 52
20260902072703 66 187 8.0 17.0 0.00 0.00 0.00 52
20260902071803 66 180 6.0 15.0 0.00 0.00 0.00 51
20260902070903 66 174 5.0 12.0 0.00 0.00 0.00 50
20260902070004 66 170 4.0 10.0 0.00 0.00 0.00 49
20260902065614 66 157 3.0 10.0 0.00 0.00 0.00 49
20260902064503 67 194 4.0 10.0 0.00 0.00 0.00 48
20260902063603 67 171 4.0 13.0 0.00 0.01 0.00 48
20260902062703 68 176 3.0 7.0 0.00 0.01 0.00 47
20260902061803 68 169 4.0 11.0 0.00 0.01 0.00 46
20260902060903 68 158 3.0 8.0 0.00 0.01 0.00 46
20260902060008 68 152 4.0 7.0 0.00 0.01 0.00 46
20260902055403 67 161 2.0 7.0 0.00 0.01 0.01 47
20260902054503 67 140 1.0 6.0 0.00 0.01 0.01 47
20260902053603 67 174 1.0 4.0 0.00 0.01 0.01 47
20260902052914 67 192 1.0 4.0 0.00 0.01 0.01 46
20260902051803 68 165 2.0 6.0 0.00 0.01 0.01 46
20260902050903 67 170 1.0 4.0 0.00 0.01 0.01 46
20260902050006 67 144 1.0 4.0 0.00 0.01 0.01 46
20260902045613 68 175 0.0 2.0 0.00 0.01 0.01 46
20260902044503 68 164 1.0 7.0 0.00 0.01 0.01 44
20260902043603 69 151 2.0 6.0 0.00 0.01 0.01 44
20260902042703 69 179 1.0 5.0 0.00 0.01 0.01 44
20260902041803 70 166 2.0 7.0 0.00 0.01 0.01 43
20260902041114 71 153 3.0 9.0 0.00 0.01 0.01 41
20260902040003 71 151 4.0 18.0 0.00 0.01 0.01 41
20260902035403 71 148 4.0 11.0 0.00 0.01 0.01 40
20260902034503 71 143 4.0 12.0 0.00 0.01 0.01 41
20260902033603 70 149 4.0 11.0 0.00 0.01 0.01 42
20260902032703 69 171 2.0 12.0 0.00 0.01 0.01 43
20260902031803 68 198 1.0 7.0 0.00 0.01 0.01 44
20260902030903 69 203 2.0 6.0 0.00 0.01 0.01 43
20260902030003 69 216 1.0 4.0 0.00 0.01 0.01 42
20260902025612 69 216 1.0 6.0 0.00 0.01 0.01 41
20260902024714 70 197 3.0 6.0 0.00 0.01 0.01 40
20260902023603 71 195 3.0 9.0 0.00 0.01 0.01 39
20260902022703 72 179 5.0 10.0 0.00 0.01 0.01 38
20260902021803 72 186 5.0 12.0 0.00 0.02 0.01 38
20260902020903 72 190 5.0 13.0 0.00 0.02 0.01 37
20260902020003 73 189 5.0 11.0 0.00 0.02 0.01 36
20260902015403 73 193 6.0 12.0 0.00 0.03 0.01 36
20260902014503 74 194 8.0 17.0 0.00 0.04 0.01 35
20260902013603 75 192 8.0 16.0 0.00 0.05 0.01 34
20260902012703 75 182 8.0 16.0 0.00 0.05 0.01 34
20260902011803 76 185 10.0 23.0 0.00 0.05 0.01 32
20260902010903 76 188 10.0 24.0 0.00 0.05 0.01 31
20260902010003 77 180 11.0 26.0 0.00 0.05 0.01 30
20260902005403 77 181 11.0 24.0 0.00 0.05 0.01 31
20260902004503 78 181 12.0 26.0 0.00 0.05 0.01 31
20260902003603 78 185 13.0 26.0 0.00 0.05 0.01 31
20260902002703 78 181 12.0 22.0 0.00 0.05 0.01 33
20260902001803 78 181 12.0 25.0 0.00 0.05 0.01 33
20260902000904 79 177 11.0 22.0 0.00 0.05 0.01 34
20260902000003 79 173 11.0 20.0 0.00 0.05 0.01 33
20260901235403 79 180 14.0 28.0 0.00 0.05 0.01 35
20260901234503 79 183 14.0 32.0 0.00 0.05 0.01 35
20260901233603 79 183 15.0 30.0 0.00 0.05 0.01 35
20260901232703 80 186 13.0 29.0 0.00 0.05 0.01 35
20260901231803 80 181 15.0 28.0 0.00 0.05 0.01 36
20260901230903 80 178 11.0 22.0 0.00 0.05 0.01 36
20260901230004 80 168 9.0 24.0 0.00 0.05 0.01 35
20260901225403 80 144 9.0 17.0 0.00 0.05 0.01 38
20260901224503 80 149 8.0 18.0 0.00 0.05 0.01 38
20260901223603 80 163 9.0 18.0 0.00 0.05 0.01 38
20260901222703 80 162 8.0 15.0 0.00 0.05 0.01 37
20260901221803 80 162 8.0 20.0 0.00 0.05 0.01 40
20260901220903 79 168 9.0 18.0 0.00 0.05 0.01 37
20260901220003 79 162 9.0 19.0 0.00 0.05 0.01 38
20260901215403 79 159 8.0 17.0 0.00 0.05 0.01 39
20260901214503 79 192 9.0 20.0 0.00 0.05 0.01 39
20260901213813 79 188 10.0 20.0 0.00 0.05 0.01 40
20260901212703 79 195 9.0 22.0 0.00 0.05 0.01 40
20260901211803 80 185 8.0 18.0 0.00 0.05 0.01 38
20260901211113 80 182 9.0 19.0 0.00 0.05 0.01 39
20260901210004 79 175 9.0 20.0 0.00 0.05 0.01 38
20260901205403 79 184 11.0 21.0 0.00 0.05 0.01 40
20260901204503 79 192 11.0 23.0 0.00 0.05 0.01 42
20260901203603 79 187 10.0 23.0 0.00 0.05 0.01 40
20260901202703 78 187 10.0 23.0 0.00 0.05 0.01 40
20260901201803 78 180 12.0 26.0 0.00 0.05 0.01 44
20260901200903 78 183 9.0 26.0 0.00 0.05 0.01 40
20260901200003 77 185 12.0 24.0 0.00 0.05 0.01 44
20260901195403 77 188 12.0 22.0 0.00 0.05 0.01 40
20260901194503 76 170 11.0 26.0 0.00 0.05 0.01 44
20260901193604 76 170 12.0 23.0 0.00 0.05 0.01 47
20260901192703 76 184 12.0 22.0 0.00 0.05 0.01 44
20260901191803 76 172 10.0 22.0 0.00 0.05 0.01 47
20260901190903 76 163 10.0 22.0 0.00 0.05 0.01 46
20260901190214 76 159 10.0 21.0 0.00 0.05 0.01 48
20260901185403 75 145 7.0 16.0 0.00 0.05 0.01 48
20260901184503 74 148 7.0 15.0 0.00 0.05 0.01 51
20260901183603 74 167 9.0 19.0 0.00 0.05 0.01 52
20260901182703 72 180 9.0 18.0 0.00 0.05 0.01 51
20260901181803 74 157 9.0 18.0 0.00 0.05 0.01 48
20260901180903 73 169 8.0 18.0 0.00 0.05 0.01 53
20260901180004 72 175 8.0 18.0 0.00 0.05 0.01 59
20260901175403 71 179 8.0 17.0 0.00 0.05 0.01 59
20260901174503 72 186 8.0 16.0 0.00 0.05 0.01 57
20260901173603 73 185 9.0 19.0 0.00 0.05 0.01 56
20260901172703 72 177 9.0 22.0 0.00 0.05 0.01 55
20260901172012 72 192 9.0 19.0 0.00 0.05 0.01 56
20260901170903 71 214 6.0 15.0 0.00 0.05 0.01 63
20260901170213 71 207 7.0 16.0 0.00 0.05 0.01 62
20260901165403 70 199 5.0 15.0 0.00 0.05 0.01 65
20260901164503 69 206 6.0 18.0 0.00 0.05 0.01 67
20260901163603 68 210 6.0 15.0 0.00 0.05 0.01 69
20260901162703 66 203 6.0 12.0 0.00 0.05 0.01 72
20260901161803 66 192 7.0 13.0 0.00 0.05 0.01 70
20260901160903 66 188 6.0 12.0 0.00 0.05 0.01 71
20260901160213 66 184 4.0 9.0 0.00 0.05 0.01 72
20260901155612 65 184 5.0 10.0 0.00 0.05 0.01 72
20260901154503 65 178 6.0 12.0 0.00 0.05 0.01 72
20260901153603 65 197 5.0 10.0 0.00 0.05 0.01 71
20260901152703 66 182 5.0 10.0 0.00 0.05 0.01 69
20260901151803 66 162 4.0 11.0 0.00 0.05 0.01 70
20260901150903 66 191 4.0 12.0 0.00 0.05 0.01 71
20260901150003 65 169 4.0 8.0 0.00 0.05 0.01 71
20260901145612 65 164 3.0 8.0 0.00 0.05 0.01 72
20260901144503 64 146 5.0 11.0 0.00 0.05 0.01 73
20260901143603 63 157 4.0 10.0 0.00 0.05 0.01 74
20260901142703 62 171 4.0 5.0 0.00 0.05 0.01 76
20260901134503 60 136 1.0 5.0 0.00 0.05 0.01 78
20260901133603 60 134 2.0 4.0 0.00 0.05 0.01 78
20260901132703 60 138 2.0 4.0 0.00 0.05 0.01 77
20260901131803 60 128 2.0 5.0 0.00 0.05 0.01 77
20260901130903 60 128 2.0 5.0 0.00 0.05 0.01 77
20260901130003 60 141 3.0 6.0 0.00 0.05 0.01 78
20260901125612 60 144 3.0 7.0 0.00 0.05 0.01 78
20260901124503 59 142 3.0 7.0 0.00 0.05 0.01 80
20260901123603 59 141 3.0 9.0 0.00 0.05 0.01 83
20260901122703 57 132 2.0 5.0 0.00 0.05 0.01 85
20260901121803 56 155 0.0 4.0 0.00 0.05 0.01 86
20260901121113 55 0 0.0 0.0 0.00 0.05 0.01 86
20260901120003 55 0 0.0 0.0 0.00 0.05 0.01 86
20260901115403 55 0 0.0 0.0 0.00 0.05 0.01 86
20260901114713 55 0 0.0 0.0 0.00 0.05 0.01 87
20260901113813 54 0 0.0 0.0 0.00 0.05 0.01 87